Flag for Turkey Weather past 2 weeks in Samsun, Turkey

Now
77 °F

Passing clouds.


Feels Like: 78 °F
Forecast: 66 / 85 °F
Wind: 6 mph from North

Location: Samsun / Carsamba

Current Time: Jul 24, 2014 at 8:43:59 PM

Latest Report: Jul 24, 2014 at 7:50 PM


Visibility: N/A

Pressure: 29.65 "Hg

Humidity: 89%

Dew point: 73 °F

Location of SamsunLocation

Historic Weather in Samsun — Graph

°F

Samsun temperature yesterday

Maximum temperature yesterday: 88 °F (at 12:50 PM)
Minimum temperature yesterday: 64 °F (at 4:50 AM)
Average temperature yesterday: 76 °F

Past Weeks' High & Low Weather Summary

 TemperatureHumidityPressure
High88 °F (Jul 11, 4:50 PM)100% (Jul 10, 4:50 AM)29.89 "Hg (Jul 10, 4:50 AM)
Low61 °F (Jul 10, 3:50 AM)42% (Jul 15, 11:50 AM)29.62 "Hg (Jul 12, 3:50 AM)
Average76 °F77%29.77 "Hg
* Reported Jul 9 7:50 PM — Jul 24 7:50 PM, Samsun, Weather by CustomWeather, © 2014

Note: Actual official high and low records may vary slightly from our data, if they occured in-between our weather recording intervals... More about our weather records

Advertising

Samsun weather history for previous 24 hours

 ConditionsComfort  
Time TempWeatherWind HumidityBarometerVisibility
7:50 PM
Jul 24
77 °FPassing clouds.6 mph89%29.65 "HgN/A
6:50 PM82 °FPassing clouds.2 mph70%29.65 "HgN/A
5:50 PM82 °FPassing clouds.7 mph70%29.65 "HgN/A
4:50 PM84 °FPassing clouds.8 mph66%29.65 "HgN/A
3:50 PM86 °FPassing clouds.8 mph62%29.65 "HgN/A
2:50 PM86 °FPassing clouds.9 mph66%29.65 "HgN/A
1:50 PM88 °FPassing clouds.8 mph66%29.65 "HgN/A
12:50 PM86 °FPassing clouds.5 mph62%29.65 "HgN/A
11:50 AM86 °FPassing clouds.3 mph62%29.68 "HgN/A
10:50 AM82 °FPassing clouds.7 mph70%29.68 "HgN/A
9:50 AM82 °FSunny.2 mph51%29.68 "Hg10 mi
8:50 AM79 °FSunny.2 mph65%29.68 "Hg10 mi
7:50 AM79 °FSunny.No wind61%29.71 "Hg10 mi
6:50 AM66 °FSunny.No wind88%29.71 "Hg10 mi
5:50 AM63 °FClear.2 mph94%29.68 "Hg10 mi
4:50 AM63 °FClear.3 mph94%29.68 "Hg10 mi
3:50 AM63 °FClear.5 mph100%29.68 "Hg10 mi
2:50 AM64 °FClear.3 mph100%29.68 "Hg10 mi
1:50 AM66 °FFog.6 mph100%29.68 "Hg3 mi
12:50 AM70 °FFog.No wind94%29.71 "Hg0 mi
11:50 PM
Jul 23
70 °FPassing clouds.No wind94%29.71 "Hg4 mi
10:50 PM72 °FClear.No wind88%29.71 "Hg10 mi
9:50 PM73 °FClear.No wind89%29.74 "Hg10 mi
8:50 PM75 °FSunny.5 mph83%29.71 "Hg10 mi
Weather by CustomWeather, © 2014

See weather overviewHow to use our weather pages